Regional Weather Roundup
Issued by NWS

Home | Current Version | Previous Version | Text Only | Print | Product List | Glossary Off
Versions: 1 2 3 4 5 6 7 8 9 10 11 12 13 14 15 16 17 18 19 20 21 22 23 24 25 26 27 28 29 30 31 32 33 34 35 36 37 38 39 40 41 42 43 44 45 46 47 48 49 50

000
ASUS45 KCYS 191110
RWRWY

WYOMING REGIONAL WEATHER ROUNDUP
NATIONAL WEATHER SERVICE CHEYENNE WY
500 AM MDT FRI SEP 19 2014

NOTE:  "FAIR" INDICATES FEW OR NO CLOUDS BELOW 12,000 FEET
WITH NO SIGNIFICANT WEATHER AND/OR OBSTRUCTIONS TO VISIBILITY.

WYZ001-191200-
YELLOWSTONE NATIONAL PARK

CITY           SKY/WX    TMP DP  RH WIND       PRES   REMARKS
LK YELLOWSTONE   N/A     39  37  92 CALM      30.16R
W YELLOWSTONE  NOT AVBL

$$
WYZ002>013-054>058-071-098>099-191200-
NORTHERN WYOMING

CITY           SKY/WX    TMP DP  RH WIND       PRES   REMARKS
JACKSON        PTCLDY    43  43 100 CALM      30.10R
CODY             N/A    N/A N/A N/A MISG        N/A
GREYBULL       CLOUDY    60  56  86 CALM      29.88R
WORLAND        CLOUDY    56  54  93 SW5       29.90S
SHERIDAN       CLOUDY    62  51  67 CALM      29.84R
BUFFALO        CLOUDY    61  49  64 S7        29.90F
GILLETTE       CLOUDY    58  53  84 S12       29.85F
HULETT         FAIR      61  52  72 MISG      29.86
NEWCASTLE      FAIR      63  46  55 N8        29.87

$$
WYZ014>020-022>026-101>103-191200-
CENTRAL WYOMING

CITY           SKY/WX    TMP DP  RH WIND       PRES   REMARKS
BIG PINEY      CLOUDY    53  47  79 E3        30.13R
PINEDALE       CLOUDY    50  50 100 N5        30.13S
DUBOIS         FAIR      50  41  71 NW10      30.08R
LANDER         CLOUDY    64  42  44 W13       29.97R
RIVERTON       CLOUDY    58  50  75 E7        29.97F
CASPER         LGT RAIN  55  50  83 S10       29.97F
DOUGLAS        PTCLDY    54  46  74 N6        29.97F

$$
WYZ021-027>030-104>119-191200-
SOUTHERN WYOMING

CITY           SKY/WX    TMP DP  RH WIND       PRES   REMARKS
EVANSTON       MOCLDY    54  47  77 NE8       30.17S
KEMMERER       LGT RAIN  52  48  87 S6        30.17F
FORT BRIDGER     N/A     55  53  94 S8        30.19R
ROCK SPRINGS   CLOUDY    54  49  83 W7        30.15R
DIXON          FAIR      45  38  78 CALM      30.16R
RAWLINS        MOCLDY    56  42  59 NW10      30.13R
SARATOGA       FAIR      48  37  66 SW3       30.14R
LARAMIE        PTCLDY    48  36  63 SE9       30.10R
CHEYENNE       CLEAR     59  37  44 W9        29.99R
TORRINGTON     MOCLDY    54  52  93 W5        29.87R
PINE BLUFFS    FAIR      54  43  66 SW9       29.93S

$$



USA.gov is the U.S. government's official web portal to all federal, state and local government web resources and services.